Location: Keppel Henge
(44.7900°N, 80.9447°W)
Time: 03:11:26
(UTC-04:00)

ISS - Pass Details

Date: 12 October 2017
Orbit: 401 x 408 km, 51.6° (Epoch: 20 October)

Event Time Altitude Azimuth Distance (km) Brightness Sun altitude
Rises 19:32:18 0° 300° (WNW) 2,326 1.1 -9.4°
Reaches altitude 10° 19:34:23 10° 304° (WNW) 1,465 -0.1 -9.8°
Maximum altitude 19:37:39 67° 27° (NNE) 445 -3.8 -10.3°
Enters shadow 19:40:12 16° 109° (ESE) 1,170 -2.1 -10.8°
